Location: Unspecified
(0.0000°N, 0.0000°E)
Time: 17:56:45
(UTC+00:00)

COSMOS 2498 - Pass Details

Date: 23 May 2026
Orbit: 1476 x 1512 km, 82.4° (Epoch: 10 June)

Event Time Altitude Azimuth Distance (km) Brightness Sun altitude
Rises 05:13:37 0° 331° (NNW) 4,583 ? -10.1°
Reaches altitude 10° 05:17:04 10° 319° (NW) 3,608 ? -9.3°
Maximum altitude 05:23:51 26° 267° (W) 2,584 ? -7.7°
Drops below altitude 10° 05:30:44 10° 214° (SW) 3,634 ? -6.1°
Sets 05:34:17 0° 202° (SSW) 4,622 ? -5.3°
